Torna al catalogo

COSMOS 970 DEB

AttivoLEO
NORAD 65006·DEBRIS·🇷🇺 Russia

Lanciato Dec 21, 1977 da Baikonur Cosmodrome

Loading…

Prossimi Passaggi (prossime 24 ore)

TLE

AggiornatoSource: Space-Track

Epoca: Sep 14, 2026, 06:13 UTC

1 65006U 77121DT  26257.25944289  .00000145  00000-0  22905-3 0  9991
2 65006  65.4939 195.0882 0134059 234.9042 123.9389 13.73574254641832

Traccia COSMOS 970 DEB in tempo reale con AllMySat

Download on the App Store